Weather History for Cherry Point, NC

Change the Weather History Date:

Saturday, October 6, 2012

  Actual Average Record
Temperature  
Mean Temperature 71 °F -  
Max Temperature 82 °F 75 °F 88 °F (1997)
Min Temperature 60 °F 56 °F 46 °F (2010)
Cooling Degree Days 6    
Growing Degree Days 21 (Base 50)    
Moisture  
Dew Point 61 °F    
Average Humidity 83    
Maximum Humidity 100    
Minimum Humidity 47    
Precipitation  
Precipitation 0.00 in - - ()
Sea Level Pressure  
Sea Level Pressure 29.98 in    
Wind  
Wind Speed 1 mph ()    
Max Wind Speed 13 mph    
Max Gust Speed -    
Visibility 6.2 miles    
Events Fog    
Averages and records for this station are not official NWS values.
T = Trace of Precipitation, MM = Missing Value Source: Averaged Metar Reports

Daily Weather History Graph

Daily Weather History Graph

Search for Another Location

Airport:

Trip Planner

Search our weather history database for the weather conditions in past years. The results will help you decide how hot, cold, wet, or windy it might be!

Date:

Astronomy

Oct. 06, 2012 Rise Set
Actual Time 7:06 AM EDT 6:43 PM EDT
Civil Twilight 6:41 AM EDT 7:09 PM EDT
Nautical Twilight 6:11 AM EDT 7:38 PM EDT
Astronomical Twilight 5:42 AM EDT 8:07 PM EDT
Moon 11:07 PM EDT (10/6) 12:48 PM EDT (10/6)
Length of Visible Light 12h 28m
Length of Day
11h 37m
Waning Gibbous, 65% of the Moon is Illuminated
Oct 6
Waning Gibbous
Oct 8
Last Quarter
Oct 15
New
Oct 21
First Quarter
Oct 29
Full

Hourly Weather History & Observations

Time (EDT) Temp. Heat Index Dew Point Humidity Pressure Visibility Wind Dir Wind Speed Gust Speed Precip Events Conditions
12:54 AM 64.0 °F - 62.1 °F 93% 30.03 in 6.0 mi Calm Calm - N/A   Clear
1:54 AM 64.0 °F - 61.0 °F 90% 30.02 in 8.0 mi Calm Calm - N/A   Clear
2:54 AM 63.0 °F - 61.0 °F 93% 30.00 in 5.0 mi Calm Calm - N/A   Clear
3:18 AM 62.6 °F - 62.6 °F 100% 30.00 in 1.8 mi Calm Calm - N/A   Clear
3:37 AM 62.6 °F - 60.8 °F 94% 30.00 in 0.5 mi Calm Calm - N/A Fog Fog
3:47 AM 62.6 °F - 60.8 °F 94% 30.00 in 1.2 mi Calm Calm - N/A   Clear
3:50 AM 62.6 °F - 60.8 °F 94% 30.00 in 3.0 mi Calm Calm - N/A   Clear
3:54 AM 62.1 °F - 61.0 °F 96% 29.99 in 2.5 mi Calm Calm - N/A   Clear
4:09 AM 62.6 °F - 60.8 °F 94% 30.00 in 1.8 mi Calm Calm - N/A   Clear
4:21 AM 60.8 °F - 60.8 °F 100% 30.00 in 3.0 mi Calm Calm - N/A   Clear
4:54 AM 61.0 °F - 59.0 °F 93% 29.99 in 6.0 mi Calm Calm - N/A   Clear
5:03 AM 60.8 °F - 59.0 °F 94% 29.99 in 5.0 mi Calm Calm - N/A   Scattered Clouds
5:12 AM 60.8 °F - 59.0 °F 94% 29.99 in 4.0 mi Calm Calm - N/A   Mostly Cloudy
5:20 AM 60.8 °F - 59.0 °F 94% 30.00 in 5.0 mi Calm Calm - N/A   Scattered Clouds
5:35 AM 60.8 °F - 59.0 °F 94% 30.00 in 1.5 mi Calm Calm - N/A   Scattered Clouds
5:42 AM 62.6 °F - 60.8 °F 94% 30.00 in 0.5 mi Calm Calm - N/A Fog Fog
5:54 AM 60.1 °F - 59.0 °F 96% 29.99 in 0.8 mi Calm Calm - N/A   Scattered Clouds
5:57 AM 60.8 °F - 59.0 °F 94% 30.00 in 2.5 mi Calm Calm - N/A   Scattered Clouds
6:04 AM 60.8 °F - 59.0 °F 94% 30.00 in 4.0 mi Calm Calm - N/A   Scattered Clouds
6:54 AM 60.1 °F - 57.9 °F 93% 29.99 in 6.0 mi Calm Calm - N/A   Clear
7:54 AM 62.1 °F - 59.0 °F 90% 29.99 in 6.0 mi Calm Calm - N/A   Partly Cloudy
8:54 AM 69.1 °F - 64.0 °F 84% 29.99 in 8.0 mi Calm Calm - N/A   Clear
9:54 AM 73.9 °F - 63.0 °F 68% 30.00 in 10.0 mi West 5.8 mph - N/A   Clear
10:54 AM 78.1 °F - 60.1 °F 54% 29.99 in 10.0 mi West 5.8 mph - N/A   Clear
11:54 AM 80.1 °F 81.1 °F 61.0 °F 52% 29.98 in 10.0 mi WSW 12.7 mph - N/A   Clear
12:54 PM 81.0 °F 81.9 °F 62.1 °F 52% 29.95 in 10.0 mi West 5.8 mph - N/A   Clear
1:54 PM 82.0 °F 82.7 °F 61.0 °F 49% 29.91 in 10.0 mi WSW 11.5 mph - N/A   Partly Cloudy
2:54 PM 82.0 °F 82.4 °F 60.1 °F 47% 29.91 in 10.0 mi Variable 3.5 mph - N/A   Scattered Clouds
3:54 PM 80.1 °F 81.5 °F 63.0 °F 56% 29.90 in 10.0 mi SW 9.2 mph - N/A   Partly Cloudy
4:54 PM 79.0 °F - 63.0 °F 58% 29.89 in 10.0 mi South 8.1 mph - N/A   Clear
5:54 PM 75.9 °F - 64.9 °F 69% 29.91 in 10.0 mi SSW 8.1 mph - N/A   Clear
6:54 PM 73.0 °F - 64.9 °F 76% 29.92 in 10.0 mi SSW 3.5 mph - N/A   Clear
7:54 PM 71.1 °F - 64.9 °F 81% 29.94 in 10.0 mi South 4.6 mph - N/A   Clear
8:54 PM 71.1 °F - 64.0 °F 78% 29.95 in 10.0 mi South 4.6 mph - N/A   Clear
9:54 PM 69.1 °F - 64.0 °F 84% 29.96 in 10.0 mi South 3.5 mph - N/A   Clear
10:54 PM 69.1 °F - 64.0 °F 84% 29.96 in 10.0 mi SSW 3.5 mph - N/A   Clear
11:54 PM 66.9 °F - 63.0 °F 87% 29.95 in 9.0 mi Calm Calm - N/A   Clear